Time,TemperatureF,DewpointF,PressureIn,WindDirection,WindDirectionDegrees,WindSpeedMPH,WindSpeedGustMPH,Humidity,HourlyPrecipIn,Conditions,Clouds,dailyrainin,SolarRadiationWatts/m^2,SoftwareType,DateUTC
2013-02-20 00:01:00,38.0,25.0,-100.00,SE,134,2.0,5.0,58,0.00,,,0.00,0.000000,,2013-02-20 06:01:00,
2013-02-20 00:32:00,38.0,24.0,-100.00,ESE,107,2.0,5.0,57,0.00,,,0.00,0.000000,,2013-02-20 06:32:00,
2013-02-20 00:42:00,38.0,24.0,-100.00,ESE,107,2.0,5.0,57,0.00,,,0.00,0.000000,,2013-02-20 06:42:00,
2013-02-20 00:52:00,38.0,24.0,-100.00,ESE,107,2.0,5.0,57,0.00,,,0.00,0.000000,,2013-02-20 06:52:00,
2013-02-20 01:01:00,38.0,24.0,-100.00,ESE,107,2.0,5.0,57,0.00,,,0.00,0.000000,,2013-02-20 07:01:00,
2013-02-20 01:02:00,39.0,29.0,-100.00,East,101,1.0,3.0,68,0.00,,,0.00,0.000000,,2013-02-20 07:02:00,
2013-02-20 01:32:00,39.0,29.0,-100.00,East,101,1.0,3.0,68,0.00,,,0.00,0.000000,,2013-02-20 07:32:00,
2013-02-20 01:42:00,39.0,29.0,-100.00,East,101,1.0,3.0,68,0.00,,,0.00,0.000000,,2013-02-20 07:42:00,
2013-02-20 01:52:00,39.0,29.0,-100.00,East,101,1.0,3.0,68,0.00,,,0.00,0.000000,,2013-02-20 07:52:00,
2013-02-20 02:22:00,40.0,27.0,-100.00,ESE,102,3.0,5.0,59,0.00,,,0.00,0.000000,,2013-02-20 08:22:00,
2013-02-20 02:32:00,40.0,27.0,-100.00,ESE,102,3.0,5.0,59,0.00,,,0.00,0.000000,,2013-02-20 08:32:00,
2013-02-20 02:42:00,40.0,27.0,-100.00,ESE,102,3.0,5.0,59,0.00,,,0.00,0.000000,,2013-02-20 08:42:00,
2013-02-20 02:52:00,40.0,27.0,-100.00,ESE,102,3.0,5.0,59,0.00,,,0.00,0.000000,,2013-02-20 08:52:00,
2013-02-20 03:01:00,40.0,27.0,-100.00,ESE,102,3.0,5.0,59,0.00,,,0.00,0.000000,,2013-02-20 09:01:00,
2013-02-20 03:32:00,40.0,27.0,-100.00,ENE,77,3.0,5.0,60,0.00,,,0.00,0.000000,,2013-02-20 09:32:00,
2013-02-20 03:42:00,40.0,27.0,-100.00,ENE,77,3.0,5.0,60,0.00,,,0.00,0.000000,,2013-02-20 09:42:00,
2013-02-20 03:52:00,40.0,27.0,-100.00,ENE,77,3.0,5.0,60,0.00,,,0.00,0.000000,,2013-02-20 09:52:00,
2013-02-20 04:01:00,40.0,27.0,-100.00,ENE,77,3.0,5.0,60,0.00,,,0.00,0.000000,,2013-02-20 10:01:00,
2013-02-20 04:02:00,41.0,27.0,-100.00,East,91,3.0,6.0,58,0.00,,,0.00,0.000000,,2013-02-20 10:02:00,
2013-02-20 04:32:00,41.0,27.0,-100.00,East,91,3.0,6.0,58,0.00,,,0.00,0.000000,,2013-02-20 10:32:00,
2013-02-20 04:42:00,41.0,27.0,-100.00,East,91,3.0,6.0,58,0.00,,,0.00,0.000000,,2013-02-20 10:42:00,
2013-02-20 04:52:00,41.0,27.0,-100.00,East,91,3.0,6.0,58,0.00,,,0.00,0.000000,,2013-02-20 10:52:00,
2013-02-20 05:32:00,41.0,28.0,-100.00,ENE,68,3.0,7.0,59,0.00,,,0.00,0.000000,,2013-02-20 11:32:00,
2013-02-20 05:42:00,41.0,28.0,-100.00,ENE,68,3.0,7.0,59,0.00,,,0.00,0.000000,,2013-02-20 11:42:00,
2013-02-20 05:52:00,41.0,28.0,-100.00,ENE,68,3.0,7.0,59,0.00,,,0.00,0.000000,,2013-02-20 11:52:00,
2013-02-20 06:01:00,41.0,28.0,-100.00,ENE,68,3.0,7.0,59,0.00,,,0.00,0.000000,,2013-02-20 12:01:00,
2013-02-20 06:32:00,38.0,34.0,-100.00,East,95,4.0,8.0,86,0.05,,,0.05,0.000000,,2013-02-20 12:32:00,
2013-02-20 06:42:00,38.0,34.0,-100.00,East,95,4.0,8.0,86,0.05,,,0.05,0.000000,,2013-02-20 12:42:00,
2013-02-20 06:53:00,38.0,34.0,-100.00,East,95,4.0,8.0,86,0.05,,,0.05,0.000000,,2013-02-20 12:53:00,
2013-02-20 07:01:00,38.0,34.0,-100.00,East,95,4.0,8.0,86,0.05,,,0.05,0.000000,,2013-02-20 13:01:00,
2013-02-20 07:32:00,37.0,33.0,-100.00,ENE,59,10.0,20.0,86,0.10,,,0.15,0.000000,,2013-02-20 13:32:00,
2013-02-20 07:42:00,37.0,33.0,-100.00,ENE,59,10.0,20.0,86,0.10,,,0.15,0.000000,,2013-02-20 13:42:00,
2013-02-20 07:52:00,37.0,33.0,-100.00,ENE,59,10.0,20.0,86,0.10,,,0.15,0.000000,,2013-02-20 13:52:00,
2013-02-20 08:01:00,37.0,33.0,-100.00,ENE,59,10.0,20.0,86,0.10,,,0.15,0.000000,,2013-02-20 14:01:00,
2013-02-20 08:32:00,36.0,33.0,-100.00,East,92,5.0,16.0,87,0.01,,,0.16,9.000000,,2013-02-20 14:32:00,
2013-02-20 08:42:00,36.0,33.0,-100.00,East,92,5.0,16.0,87,0.01,,,0.16,9.000000,,2013-02-20 14:42:00,
2013-02-20 08:52:00,36.0,33.0,-100.00,East,92,5.0,16.0,87,0.01,,,0.16,9.000000,,2013-02-20 14:52:00,
2013-02-20 09:01:00,36.0,33.0,-100.00,East,92,5.0,16.0,87,0.01,,,0.16,9.000000,,2013-02-20 15:01:00,
2013-02-20 09:32:00,36.0,33.0,-100.00,South,171,4.0,10.0,90,0.09,,,0.25,21.000000,,2013-02-20 15:32:00,
2013-02-20 09:42:00,36.0,33.0,-100.00,South,171,4.0,10.0,90,0.09,,,0.25,21.000000,,2013-02-20 15:42:00,
2013-02-20 09:52:00,36.0,33.0,-100.00,South,171,4.0,10.0,90,0.09,,,0.25,21.000000,,2013-02-20 15:52:00,
2013-02-20 10:01:00,36.0,33.0,-100.00,South,171,4.0,10.0,90,0.09,,,0.25,21.000000,,2013-02-20 16:01:00,
2013-02-20 10:32:00,36.0,33.0,-100.00,NE,52,5.0,7.0,89,0.02,,,-99.99,33.000000,,2013-02-20 16:32:00,
2013-02-20 10:42:00,36.0,33.0,-100.00,NE,52,5.0,7.0,89,0.02,,,-99.99,33.000000,,2013-02-20 16:42:00,
2013-02-20 10:52:00,36.0,33.0,-100.00,NE,52,5.0,7.0,89,0.02,,,-99.99,33.000000,,2013-02-20 16:52:00,
2013-02-20 11:01:00,36.0,33.0,-100.00,NE,52,5.0,7.0,89,0.02,,,-99.99,33.000000,,2013-02-20 17:01:00,
2013-02-20 11:02:00,36.0,33.0,-100.00,ENE,69,6.0,12.0,88,0.01,,,0.28,96.000000,,2013-02-20 17:02:00,
2013-02-20 11:32:00,36.0,33.0,-100.00,ENE,69,6.0,12.0,88,0.01,,,0.28,96.000000,,2013-02-20 17:32:00,
2013-02-20 11:42:00,36.0,33.0,-100.00,ENE,69,6.0,12.0,88,0.01,,,0.28,96.000000,,2013-02-20 17:42:00,
2013-02-20 11:52:00,36.0,33.0,-100.00,ENE,69,6.0,12.0,88,0.01,,,0.28,96.000000,,2013-02-20 17:52:00,
2013-02-20 12:22:00,35.0,31.0,-100.00,ENE,74,10.0,15.0,85,0.03,,,-99.99,164.000000,,2013-02-20 18:22:00,
2013-02-20 12:32:00,35.0,31.0,-100.00,ENE,74,10.0,15.0,85,0.03,,,-99.99,164.000000,,2013-02-20 18:32:00,
2013-02-20 12:42:00,35.0,31.0,-100.00,ENE,74,10.0,15.0,85,0.03,,,-99.99,164.000000,,2013-02-20 18:42:00,
2013-02-20 12:52:00,35.0,31.0,-100.00,ENE,74,10.0,15.0,85,0.03,,,-99.99,164.000000,,2013-02-20 18:52:00,
2013-02-20 13:01:00,35.0,31.0,-100.00,ENE,74,10.0,15.0,85,0.03,,,-99.99,164.000000,,2013-02-20 19:01:00,
2013-02-20 13:32:00,36.0,30.0,-100.00,ENE,72,10.0,19.0,80,0.00,,,0.31,194.000000,,2013-02-20 19:32:00,
2013-02-20 13:42:00,36.0,30.0,-100.00,ENE,72,10.0,19.0,80,0.00,,,0.31,194.000000,,2013-02-20 19:42:00,
2013-02-20 13:52:00,36.0,30.0,-100.00,ENE,72,10.0,19.0,80,0.00,,,0.31,194.000000,,2013-02-20 19:52:00,
2013-02-20 14:01:00,36.0,30.0,-100.00,ENE,72,10.0,19.0,80,0.00,,,0.31,194.000000,,2013-02-20 20:01:00,
2013-02-20 14:31:00,36.0,29.0,-100.00,East,81,9.0,18.0,76,0.00,,,0.31,222.000000,,2013-02-20 20:31:00,
2013-02-20 14:41:00,36.0,29.0,-100.00,East,81,9.0,18.0,76,0.00,,,0.31,222.000000,,2013-02-20 20:41:00,
2013-02-20 14:52:00,36.0,29.0,-100.00,East,81,9.0,18.0,76,0.00,,,0.31,222.000000,,2013-02-20 20:52:00,
2013-02-20 15:01:00,36.0,29.0,-100.00,East,81,9.0,18.0,76,0.00,,,0.31,222.000000,,2013-02-20 21:01:00,
2013-02-20 15:32:00,34.0,31.0,-100.00,East,81,9.0,15.0,89,0.13,,,0.44,73.000000,,2013-02-20 21:32:00,
2013-02-20 15:42:00,34.0,31.0,-100.00,East,81,9.0,15.0,89,0.13,,,0.44,73.000000,,2013-02-20 21:42:00,
2013-02-20 15:52:00,34.0,31.0,-100.00,East,81,9.0,15.0,89,0.13,,,0.44,73.000000,,2013-02-20 21:52:00,
2013-02-20 16:01:00,34.0,31.0,-100.00,East,81,9.0,15.0,89,0.13,,,0.44,73.000000,,2013-02-20 22:01:00,
2013-02-20 16:32:00,34.0,31.0,-100.00,ENE,78,8.0,16.0,89,0.06,,,0.50,71.000000,,2013-02-20 22:32:00,
2013-02-20 16:43:00,34.0,31.0,-100.00,ENE,78,8.0,16.0,89,0.06,,,0.50,71.000000,,2013-02-20 22:43:00,
2013-02-20 16:52:00,34.0,31.0,-100.00,ENE,78,8.0,16.0,89,0.06,,,0.50,71.000000,,2013-02-20 22:52:00,
2013-02-20 17:01:00,34.0,31.0,-100.00,ENE,78,8.0,16.0,89,0.06,,,0.50,71.000000,,2013-02-20 23:01:00,
2013-02-20 17:02:00,34.0,31.0,-100.00,ENE,67,8.0,17.0,89,0.03,,,0.53,52.000000,,2013-02-20 23:02:00,
2013-02-20 17:22:00,34.0,31.0,-100.00,ENE,67,8.0,17.0,89,0.03,,,0.53,52.000000,,2013-02-20 23:22:00,
2013-02-20 17:32:00,34.0,31.0,-100.00,ENE,67,8.0,17.0,89,0.03,,,0.53,52.000000,,2013-02-20 23:32:00,
2013-02-20 17:42:00,34.0,31.0,-100.00,ENE,67,8.0,17.0,89,0.03,,,0.53,52.000000,,2013-02-20 23:42:00,
2013-02-20 17:52:00,34.0,31.0,-100.00,ENE,67,8.0,17.0,89,0.03,,,0.53,52.000000,,2013-02-20 23:52:00,
2013-02-20 18:22:00,33.0,30.0,-100.00,ENE,71,10.0,17.0,89,0.01,,,0.54,14.000000,,2013-02-21 00:22:00,
2013-02-20 18:32:00,33.0,30.0,-100.00,ENE,71,10.0,17.0,89,0.01,,,0.54,14.000000,,2013-02-21 00:32:00,
2013-02-20 18:42:00,33.0,30.0,-100.00,ENE,71,10.0,17.0,89,0.01,,,0.54,14.000000,,2013-02-21 00:42:00,
2013-02-20 18:52:00,33.0,30.0,-100.00,ENE,71,10.0,17.0,89,0.01,,,0.54,14.000000,,2013-02-21 00:52:00,
2013-02-20 19:01:00,33.0,30.0,-100.00,ENE,71,10.0,17.0,89,0.01,,,0.54,14.000000,,2013-02-21 01:01:00,
2013-02-20 19:21:00,33.0,30.0,-100.00,ENE,78,9.0,21.0,87,0.00,,,0.54,0.000000,,2013-02-21 01:21:00,
2013-02-20 19:32:00,33.0,30.0,-100.00,ENE,78,9.0,21.0,87,0.00,,,0.54,0.000000,,2013-02-21 01:32:00,
2013-02-20 19:42:00,33.0,30.0,-100.00,ENE,78,9.0,21.0,87,0.00,,,0.54,0.000000,,2013-02-21 01:42:00,
2013-02-20 19:52:00,33.0,30.0,-100.00,ENE,78,9.0,21.0,87,0.00,,,0.54,0.000000,,2013-02-21 01:52:00,
2013-02-20 20:01:00,33.0,30.0,-100.00,ENE,78,9.0,21.0,87,0.00,,,0.54,0.000000,,2013-02-21 02:01:00,
2013-02-20 20:22:00,32.0,28.0,-100.00,East,84,8.0,18.0,86,0.02,,,0.56,0.000000,,2013-02-21 02:22:00,
2013-02-20 20:32:00,32.0,28.0,-100.00,East,84,8.0,18.0,86,0.02,,,0.56,0.000000,,2013-02-21 02:32:00,
2013-02-20 20:42:00,32.0,28.0,-100.00,East,84,8.0,18.0,86,0.02,,,0.56,0.000000,,2013-02-21 02:42:00,
2013-02-20 20:52:00,32.0,28.0,-100.00,East,84,8.0,18.0,86,0.02,,,0.56,0.000000,,2013-02-21 02:52:00,
2013-02-20 21:01:00,32.0,28.0,-100.00,East,84,8.0,18.0,86,0.02,,,0.56,0.000000,,2013-02-21 03:01:00,
2013-02-20 21:32:00,33.0,28.0,-100.00,East,79,10.0,18.0,83,0.01,,,0.57,0.000000,,2013-02-21 03:32:00,
2013-02-20 21:42:00,33.0,28.0,-100.00,East,79,10.0,18.0,83,0.01,,,0.57,0.000000,,2013-02-21 03:42:00,
2013-02-20 21:52:00,33.0,28.0,-100.00,East,79,10.0,18.0,83,0.01,,,0.57,0.000000,,2013-02-21 03:52:00,
2013-02-20 22:01:00,33.0,28.0,-100.00,East,79,10.0,18.0,83,0.01,,,0.57,0.000000,,2013-02-21 04:01:00,
2013-02-20 22:02:00,32.0,28.0,-100.00,East,79,8.0,18.0,86,0.03,,,0.60,0.000000,,2013-02-21 04:02:00,
2013-02-20 22:32:00,32.0,28.0,-100.00,East,79,8.0,18.0,86,0.03,,,0.60,0.000000,,2013-02-21 04:32:00,
2013-02-20 22:42:00,32.0,28.0,-100.00,East,79,8.0,18.0,86,0.03,,,0.60,0.000000,,2013-02-21 04:42:00,
2013-02-20 22:52:00,32.0,28.0,-100.00,East,79,8.0,18.0,86,0.03,,,0.60,0.000000,,2013-02-21 04:52:00,
2013-02-20 23:22:00,33.0,29.0,-100.00,East,81,8.0,14.0,85,0.00,,,0.60,0.000000,,2013-02-21 05:22:00,
2013-02-20 23:37:00,33.0,29.0,-100.00,East,81,8.0,14.0,85,0.00,,,0.60,0.000000,,2013-02-21 05:37:00,
2013-02-20 23:46:00,33.0,29.0,-100.00,East,81,8.0,14.0,85,0.00,,,0.60,0.000000,,2013-02-21 05:46:00,
2013-02-20 23:59:00,33.0,29.0,-100.00,East,81,8.0,14.0,85,0.00,,,0.60,0.000000,,2013-02-21 05:59:00,